[Iaude] MPEC G106: 2024 GN1 [a=1.15,e=0.33,i=17.7,H=26.2]
    mpec at cfa.harvard.edu 
    mpec at cfa.harvard.edu
       
    Tue Apr  9 01:26:26 EDT 2024
    
    
  
M.P.E.C. 2024-G106                                Issued 2024 April 9, 05:25 UT
     The Minor Planet Electronic Circulars contain information on unusual
         minor planets, routine data on comets and natural satellites,
         and occasional editorial announcements.  They are published
    on behalf of Division F of the International Astronomical Union by the
          Minor Planet Center, Smithsonian Astrophysical Observatory,
                          Cambridge, MA 02138, U.S.A.
			  
             Prepared using the Tamkin Foundation Computer Network
                              MPC at CFA.HARVARD.EDU
            URL https://www.minorplanetcenter.net/    ISSN 1523-6714
                                    2024 GN1                                    
Observations:
     K24G01N* C2024 04 07.91604 12 36 49.94 +13 53 25.9          18.9 GVEG106K88
     K24G01N  C2024 04 07.91778 12 36 48.04 +13 52 17.7          19.0 GVEG106K88
     K24G01N  C2024 04 07.91853 12 36 47.19 +13 51 46.4          18.8 GVEG106K88
     K24G01N KC2024 04 07.93315312 36 30.66 +13 41 55.8          18.9 RoEG106K88
     K24G01N KC2024 04 07.93503012 36 28.50 +13 40 39.8          19.1 RoEG106K88
     K24G01N KC2024 04 07.93690812 36 26.36 +13 39 23.9          19.0 RoEG106K88
     K24G01N KB2024 04 07.96008512 36 05.00 +13 24 09.0          19.5 GXEG106I93
     K24G01N KB2024 04 07.96160012 36 15.638+13 27 46.69         19.1 VZEG106Y05
     K24G01N KC2024 04 07.96259512 35 57.49 +13 22 13.3          19.4 RoEG106K88
     K24G01N KC2024 04 07.96306312 35 56.95 +13 21 54.2          19.5 RoEG106K88
     K24G01N KC2024 04 07.96446912 35 55.41 +13 20 58.0          19.4 RoEG106K88
     K24G01N KB2024 04 07.96460312 35 59.85 +13 21 07.4          20.0 GXEG106I93
     K24G01N KC2024 04 07.96587712 35 53.85 +13 20 01.2          19.5 RoEG106K88
     K24G01N KC2024 04 07.96634612 35 53.35 +13 19 42.2          19.3 RoEG106K88
     K24G01N KB2024 04 07.96902712 35 54.87 +13 18 11.1          19.7 GXEG106I93
     K24G01N KB2024 04 07.96965712 36 06.694+13 22 26.90         20.4 VZEG106Y05
     K24G01N KC2024 04 07.99246312 35 24.32 +13 02 19.3          19.4 RoEG106K88
     K24G01N KC2024 04 08.03960112 34 33.21 +12 31 13.4          19.4 RoEG106K88
     K24G01N KC2024 04 08.04295412 34 29.63 +12 29 01.5          19.3 RoEG106K88
     K24G01N KC2024 04 08.04580712 34 26.52 +12 27 08.5          19.5 RoEG106K88
     K24G01N mC2024 04 08.11726512 33 38.174+11 41 48.16         19.67GVEG106I52
     K24G01N mC2024 04 08.11743512 33 38.016+11 41 41.53         19.32GVEG106I52
     K24G01N mC2024 04 08.11760412 33 37.847+11 41 35.41         19.52GVEG106I52
     K24G01N mC2024 04 08.11777412 33 37.685+11 41 28.93         19.98GVEG106I52
     K24G01N KC2024 04 08.14360312 33 05.32 +11 24 46.4          20.3 GVEG106H21
     K24G01N KC2024 04 08.14518712 33 03.62 +11 23 46.2          19.9 GVEG106H21
     K24G01N KC2024 04 08.14677012 33 01.96 +11 22 46.0          19.8 GVEG106H21
     K24G01N KC2024 04 08.14835412 33 00.28 +11 21 45.9          19.8 GVEG106H21
     K24G01N KC2024 04 08.15014712 32 58.40 +11 20 37.6          19.8 GVEG106H21
     K24G01N KC2024 04 08.16579412 32 46.44 +11 10 55.6          19.3 GXEG106858
     K24G01N KC2024 04 08.17137912 32 40.59 +11 07 24.7          19.7 GXEG106858
     K24G01N KC2024 04 08.17796312 32 33.70 +11 03 16.5          19.8 GXEG106858
     K24G01N hC2024 04 08.87317612 22 31.26 +04 23 01.2          19.5 GVEG106L01
     K24G01N hC2024 04 08.87466212 22 30.00 +04 22 15.0          19.6 GVEG106L01
     K24G01N hC2024 04 08.87614512 22 28.70 +04 21 28.2          19.5 GVEG106L01
     K24G01N KC2024 04 09.13539212 19 19.46 +02 11 42.2          19.9 GVEG106H21
     K24G01N KC2024 04 09.13664112 19 18.49 +02 11 06.1          19.8 GVEG106H21
     K24G01N KC2024 04 09.14271912 19 13.76 +02 08 10.4          20.5 GVEG106H21
     K24G01N KC2024 04 09.14537912 19 11.68 +02 06 53.4          20.0 GVEG106H21
Observer details:
858 Tebbutt Observatory, Edgewood.  Observer F. B. Zoltowski.  0.51-m f/8.1
    Schmidt-Cassegrain + CCD.
H21 Astronomical Research Observatory, Westfield.  Observer R. Holmes.
    Measurers T. Linder, R. Holmes, L. Horn.  0.76-m f/3.0 astrograph + CCD,
    0.81-m f/4.0 astrograph + CCD.
I52 Steward Observatory, Mt. Lemmon Station.  Observer J. K. Hogan.  Measurers
    T. Beuden, V. F. Carvajal, D. Fay, J. B. Fazekas, D. C. Fuls, A. R. Gibbs,
    A. D. Grauer, H. Groeller, J. K. Hogan, R. A. Kowalski, S. M. Larson, G.
    J. Leonard, D. Rankin, R. L. Seaman, F. C. Shelly, K. W. Wierzchos.  1.0-m
    prime focus + CCD.
I93 St Pardon de Conques.  Observer F. Losse.  0.40-m f/3.7 reflector + CCD.
K88 GINOP-KHK, Piszkesteto.  Observer K. Sarneczky.  0.60-m Schmidt + CCD.
L01 Visnjan Observatory, Tican.  Observer K. Korlevic.  1.0-m f/2.9 reflector
    + CCD.
Y05 SONEAR Wykrota-CEAMIG, Serra da Piedade.  Observers C. Jacques, A.
    Caetano, E. Pimentel.  Measurer C. Jacques.  0.45-m f/2.9 reflector + CMO.
Orbital elements:
2024 GN1                                                 Earth MOID = 0.0073 AU
Epoch 2024 Mar. 31.0 TT = JDT 2460400.5                 Veres                   
M  47.33250              (2000.0)            P               Q                  
n   0.79966642     Peri.   87.28983     -0.27039422     -0.95749656             
a   1.1495560      Node    19.32782     +0.71781074     -0.27002271             
e   0.3313982      Incl.   17.66529     +0.64158765     -0.10143015             
P   1.23           H   26.27          G   0.15           U   7                  
Residuals in seconds of arc
240407 K88  1.7-  1.1-    240407 K88  0.8+  0.4-    240408 H21  0.2-  0.2-
240407 K88  0.5-  1.1+    240407 I93  0.1-  0.5+    240408 H21  0.2-  0.0
240407 K88  0.5-  0.1+    240407 Y05  0.2+  0.8+    240408 H21  0.0   0.1-
240407 K88  0.5+  0.3-    240407 K88  0.2-  0.6-    240408 858  0.1+  0.3-
240407 K88  0.0   0.6-    240408 K88  1.2+  0.3+    240408 858  0.1-  0.2-
240407 K88  0.3-  0.9-    240408 K88  1.2+  0.5+    240408 858  0.1-  0.0
240407 I93  0.9+  1.1+    240408 K88  0.3+  0.3-    240408 L01  0.1+  0.4+
240407 Y05  0.5-  0.7+    240408 I52  0.1-  0.0     240408 L01  0.2-  0.6+
240407 K88  0.0   0.5+    240408 I52  0.1+  0.2-    240408 L01  1.0-  0.1+
240407 K88  0.2-  0.2+    240408 I52  0.2+  0.2+    240409 H21  0.0   0.2-
240407 K88  0.2+  0.3+    240408 I52  0.4+  0.2+    240409 H21  0.0   0.1-
240407 I93  0.0   0.1+    240408 H21  0.0   0.3-    240409 H21  0.1+  0.1+
240407 K88  0.4+  0.1-    240408 H21  0.4-  0.2-    240409 H21  0.0   0.0
Ephemeris:
2024 GN1                 a,e,i = 1.15, 0.33, 18                  q = 0.7686
Date    TT    R. A. (2000) Decl.     Delta      r    Elong.  Phase     V
2024 03 10    22 50 16.1 +44 25 34   0.2027  0.8739    49.1   120.8    27.4
...
2024 03 25    22 12 37.1 +54 21 38   0.09229 0.9520    58.4   116.9    25.6
...
2024 04 02    18 56 08.5 +69 28 57   0.03891 0.9966    84.5    93.3    22.5
...
2024 04 08    12 35 22.8 +13 00 37   0.03120 1.0303   158.3    21.1    19.8
2024 04 09    12 20 52.4 +03 21 16   0.03584 1.0360   163.4    16.1    20.0
2024 04 10    12 10 13.9 -03 55 34   0.04138 1.0416   163.4    15.9    20.3
...
2024 04 16    11 40 51.4 -23 13 54   0.08238 1.0752   149.3    28.4    22.3
...
2024 04 24    11 30 49.8 -30 15 09   0.1433  1.1193   140.0    35.3    23.7
...
2024 05 09    11 34 13.9 -33 47 47   0.2646  1.1982   130.4    39.9    25.4
M. P. C. Staff               (C) Copyright 2024 MPC           M.P.E.C. 2024-G106
    
    
More information about the Iaude
mailing list